Location: Jackson Park
(37.2862°N, 79.9123°W)
Time: 02:32:56
(UTC+00:00)

Tiros 1 despin weight - Pass Details

Date: 14 May 2026
Orbit: 554 x 591 km, 48.2° (Epoch: 6 June)

Event Time Altitude Azimuth Distance (km) Brightness Sun altitude
Rises 12:02:27 0° 272° (W) 2,746 ? 20.2°
Reaches altitude 10° 12:05:01 10° 285° (WNW) 1,845 ? 20.7°
Maximum altitude 12:08:33 25° 342° (NNW) 1,132 ? 21.4°
Drops below altitude 10° 12:12:04 10° 40° (NE) 1,837 ? 22.1°
Sets 12:14:37 0° 53° (NE) 2,731 ? 22.6°
